This is the latest recevied weather packets stored in our database for station/object KD7JB. If no packets are shown the sender has not sent any weather packets the latest 10 day(s).
| Time | Temp. | Humidity | Pressure | Rain* | Wind** | Luminosity | Snow |
|---|---|---|---|---|---|---|---|
| 1777688123 | 15° C | 50% | 1177.3 hPa | 0 mm | - | 35 W/m² | - |
| 1777687820 | 15° C | 48% | 1177.5 hPa | 0 mm | - | 40 W/m² | - |
| 1777687518 | 15.56° C | 47% | 1177.5 hPa | 0 mm | - | 46 W/m² | - |
| 1777687214 | 15.56° C | 47% | 1177.4 hPa | 0 mm | - | 53 W/m² | - |
| 1777686912 | 15.56° C | 47% | 1177.4 hPa | 0 mm | - | 60 W/m² | - |
| 1777686608 | 15.56° C | 47% | 1177.4 hPa | 0 mm | - | 73 W/m² | - |
| 1777686305 | 15.56° C | 46% | 1177.5 hPa | 0 mm | - | 59 W/m² | - |
| 1777686002 | 15.56° C | 46% | 1177.5 hPa | 0 mm | - | 69 W/m² | - |
| 1777685697 | 15.56° C | 47% | 1177.5 hPa | 0 mm | - | 94 W/m² | - |
| 1777685394 | 15.56° C | 47% | 1177.5 hPa | 0 mm | - | 94 W/m² | - |
| 1777685092 | 15.56° C | 46% | 1177.6 hPa | 0 mm | - | 86 W/m² | - |
| 1777684789 | 15.56° C | 48% | 1177.4 hPa | 0 mm | - | 88 W/m² | - |
| 1777684485 | 15.56° C | 46% | 1177.5 hPa | 0 mm | - | 107 W/m² | - |
| 1777684182 | 15.56° C | 46% | 1177.8 hPa | 0 mm | - | 98 W/m² | - |
| 1777683879 | 16.11° C | 46% | 1177.5 hPa | 0 mm | - | 101 W/m² | - |
| 1777683575 | 16.11° C | 46% | 1177.8 hPa | 0 mm | - | 120 W/m² | - |
| 1777683273 | 16.11° C | 46% | 1177.6 hPa | 0 mm | - | 88 W/m² | - |
| 1777682971 | 16.11° C | 45% | 1177.9 hPa | 0 mm | - | 92 W/m² | - |
| 1777682667 | 16.67° C | 44% | 1177.8 hPa | 0 mm | - | 100 W/m² | - |
| 1777682364 | 16.67° C | 44% | 1177.6 hPa | 0 mm | - | 165 W/m² | - |
| 1777682061 | 16.67° C | 43% | 1177.6 hPa | 0 mm | - | 167 W/m² | - |
| 1777681757 | 17.22° C | 43% | 1177.9 hPa | 0 mm | - | 206 W/m² | - |
| 1777681455 | 16.67° C | 43% | 1177.9 hPa | 0 mm | - | 297 W/m² | - |
| 1777681152 | 17.22° C | 42% | 1177.9 hPa | 0 mm | - | 268 W/m² | - |
| 1777680850 | 16.67° C | 41% | 1177.8 hPa | 0 mm | - | 293 W/m² | - |
* Rain latest hour (hover to see other rain measurements)
** Current wind speed in m/s (hover to see current wind gust speed)